#timestamp,LO_Frequency,Hit,StdDev 
1592164815.1,286046996.0,N
1592164835.9,286046994.9,N
1592164855.7,286046996.7,N
1592164875.5,286046995.4,N
1592164895.4,286046994.6,N
1592164915.2,286046992.3,N
1592164935.0,286046993.4,N
1592164935.9,286046993.4,N
1592164955.8,286046990.5,N
1592164975.6,286046987.0,N
1592164995.5,286046990.4,N
1592165015.3,286046996.2,N
1592165035.1,286046994.0,N
1592165055.9,286046996.0,N
1592165075.7,286046999.5,N
1592165095.6,286046999.2,N
1592165115.4,286047000.0,N
1592165135.2,286047001.1,N
1592165155.1,286046998.5,N
1592165156.0,286046998.5,N
1592165175.8,286046996.8,N
1592165195.7,286046994.9,N
1592165215.5,286046994.5,N
1592165235.3,286046996.3,N
1592165255.2,286046994.6,N
1592165275.0,286046996.4,N
1592165275.9,286046996.4,N
1592165295.7,286046995.4,N
1592165315.6,286047003.7,N
1592165335.4,286047007.6,N
1592165355.3,286047004.2,N
1592165375.1,286047005.7,N
1592165395.8,286047010.2,N
1592165415.7,286047013.6,N
1592165435.5,286047017.8,Y
1592165455.4,286047024.5,P
1592165475.2,286047030.7,N
1592165495.0,286047033.4,N
1592165495.9,286047033.4,N
1592165515.8,286047031.9,N
1592165535.6,286047032.5,N
1592165585.5,286047038.9,E
1592165595.4,286047021.5,N
1592165615.2,286046994.5,P
1592165635.1,286046992.6,N
1592165636.0,286046992.6,N
1592165655.8,286046994.1,N
1592165675.7,286046997.0,N
1592165695.5,286047000.1,N
1592165715.3,286047002.3,N
1592165735.2,286047004.3,N
1592165755.0,286047005.6,N
1592165755.9,286047005.6,N
1592165775.8,286047006.8,N
1592165795.6,286047004.9,N
1592165815.4,286047004.8,N
1592165835.3,286047007.9,N
1592165855.1,286047007.7,N
1592165875.9,286047010.6,N
1592165895.7,286047007.8,N
1592165915.5,286047009.3,N
1592165935.4,286047012.6,N
1592165955.2,286047015.9,N
1592165975.0,286047017.9,N
1592165975.9,286047017.9,N
1592165995.8,286047020.1,N
1592166015.6,286047021.5,N
1592166035.5,286047020.5,N
1592166055.3,286047022.9,N
1592166075.1,286047022.7,N
1592166095.9,286047026.1,N
1592166115.7,286047026.1,N
1592166135.6,286047028.5,N
1592166155.4,286047026.9,N
1592166175.2,286047026.2,N
1592166195.1,286047023.4,N
1592166196.0,286047023.4,N
1592166215.8,286047021.9,N
1592166235.6,286047020.9,N
1592166255.5,286047021.3,N
1592166275.3,286047017.4,N
1592166295.2,286047017.3,N
1592166315.9,286047021.3,N
1592166335.7,286047020.8,N
1592166355.6,286047023.4,Y
1592166375.4,286047005.3,P
1592166395.2,286047007.8,N
1592166415.1,286047008.4,N
1592166416.0,286047008.4,N
1592166435.8,286047008.7,N
1592166455.7,286047009.9,N
1592166475.5,286047010.4,N
1592166495.3,286047008.9,N
1592166515.2,286047009.4,N
1592166535.0,286047012.8,Y
1592166535.9,286047012.8,P
1592166555.8,286047004.7,N
1592166575.6,286047006.7,N
1592166595.4,286047010.7,Y
1592166615.3,286047004.1,P
1592166635.1,286047005.1,N
1592166655.9,286047007.5,P
1592166675.7,286047007.2,Y
1592166695.5,286047006.0,P
1592166715.4,286047004.5,P
1592166735.2,286047006.9,P
1592166755.1,286047007.2,Y
1592166756.0,286047007.2,P
1592166775.8,286047002.8,P
1592166795.6,286047000.0,N
1592166815.5,286046999.1,N
1592166835.3,286047001.0,N
1592166855.1,286046999.1,N
1592166875.9,286047000.9,N
1592166895.7,286047000.2,N
1592166915.6,286047004.2,N
1592166935.4,286047004.9,N
1592166955.3,286047009.1,Y
1592166975.1,286047005.8,P
1592166976.0,286047005.8,P
1592166995.8,286047003.0,N
1592167015.7,286047002.2,N
1592167035.5,286047000.1,N
1592167055.3,286047002.6,N
1592167075.2,286047003.7,N
1592167095.0,286047004.2,N
1592167095.9,286047004.2,N
1592167115.8,286047002.9,N
1592167135.6,286047001.3,N
1592167155.4,286047002.1,N
1592167175.3,286047004.1,N
1592167195.1,286047004.2,N
1592167215.8,286047001.3,N
1592167235.7,286046999.8,N
1592167255.5,286047001.2,N
1592167275.3,286046999.0,N
1592167295.2,286046999.6,N
1592167315.0,286046993.4,Y
1592167315.9,286046993.4,P
1592167335.8,286046988.2,N
1592167355.6,286046979.2,P
1592167375.4,286046978.5,N
1592167395.3,286046972.5,Y
1592167415.1,286046985.0,P
1592167435.9,286046983.0,P
1592167455.7,286046980.6,P
1592167475.5,286046981.8,Y
1592167495.4,286046993.4,P
1592167515.2,286046993.5,N
1592167535.1,286046993.3,N
1592167536.0,286046993.3,N
1592167555.8,286046995.4,N
1592167575.6,286046993.5,N
1592167595.5,286046996.4,N
1592167615.3,286046990.1,N
1592167635.1,286046990.8,N
1592167655.9,286046990.1,Y
1592167675.7,286046998.9,P
1592167695.6,286046995.1,N
1592167715.4,286046995.0,N
1592167735.2,286046993.7,N
1592167755.1,286047000.2,N
1592167756.0,286047000.2,N
1592167775.8,286047004.2,N
1592167795.7,286047005.1,N
1592167815.5,286047009.2,N
1592167835.3,286047010.8,N
1592167855.2,286047010.2,N
1592167875.9,286047010.6,N
1592167895.7,286047007.2,N
1592167915.6,286047004.5,N
1592167935.4,286047010.0,N
1592167955.3,286047012.1,N
1592167975.1,286047014.3,N
1592167995.8,286047014.7,N
1592168015.7,286047014.3,N
1592168035.5,286047011.0,N
1592168055.4,286047006.7,N
1592168075.2,286047004.8,N
1592168095.0,286047007.5,N
1592168095.9,286047007.5,N
1592168115.8,286047010.8,N
1592168135.6,286047006.6,N
1592168155.4,286047003.3,N
1592168175.3,286047001.4,N
1592168195.1,286047001.1,N
1592168215.9,286046998.7,N
1592168235.7,286046999.8,N
1592168255.5,286046996.9,N
1592168275.4,286047002.7,N
1592168295.2,286047006.3,N
1592168315.0,286047010.4,N
1592168315.9,286047010.4,N
1592168335.8,286047011.8,N
1592168355.6,286047011.5,N
1592168375.5,286047012.5,N
1592168395.3,286047013.6,N
